Simultaneous Nadir Overpasses (SNOs) Predictions

Prediction of SNOs between LANDSAT-8 and METOP-B Satellite Orbit:

Table of predicted SNOs for the next 14.0 days since TLE Epoch: 9/21/2018
Index Date (LANDSAT-8) Time (LANDSAT-8) Lat,Lon (LANDSAT-8) SZA (LANDSAT-8 ) Date (METOP-B) Time (METOP-B) Lat,Lon (METOP-B) SZA (METOP-B ) Distance(km) Time Diff (sec)
1 09/23/2018 10:55:00 -81.17,-123.02 96.38 09/23/2018 10:54:53 -81.18,-122.89 96.36 2.43 7
2 09/23/2018 11:44:25 81.20, 45.09 83.71 09/23/2018 11:45:31 81.20, 45.26 83.76 2.96 66
3 09/26/2018 05:40:19 80.34, 125.58 83.08 09/26/2018 05:39:06 80.62, 124.33 83.18 38.34 73
4 09/26/2018 06:29:15 -81.19, -56.24 95.21 09/26/2018 06:29:14 -81.19, -56.19 95.21 1.01 1
5 09/26/2018 07:18:41 81.20, 111.47 84.82 09/26/2018 07:19:53 81.20, 111.55 84.86 1.46 72
6 09/29/2018 01:14:06 81.17,-157.87 85.84 09/29/2018 01:12:57 81.17,-157.81 85.81 0.91 69
7 09/29/2018 02:03:32 -81.19, 10.14 94.10 09/29/2018 02:03:37 -81.19, 10.12 94.10 0.66 5
8 10/01/2018 20:48:23 81.16, -91.53 86.93 10/01/2018 20:47:20 81.16, -91.53 86.91 0.31 63
9 10/01/2018 21:37:49 -81.19, 76.51 93.00 10/01/2018 21:38:00 -81.18, 76.42 93.01 1.58 11
10 10/04/2018 16:22:38 81.18, -24.85 88.08 10/04/2018 16:21:41 81.17, -24.87 88.04 0.72 57




NCC Satellite Simultaneous Nadir Overpasses (SNOs) Prediction Service
